Weather History for PHNL - November, 2012

Change the Weather History Date:

Thursday, November 1, 2012

  Actual Average Record
Temperature  
Mean Temperature 76 °F 79 °F  
Max Temperature 85 °F 85 °F 91 °F (1995)
Min Temperature 67 °F 73 °F 64 °F (1962)
Degree Days  
Heating Degree Days 0 0  
Month to date heating degree days 0 0  
Since 1 July heating degree days 0 0  
Cooling Degree Days 11 14  
Month to date cooling degree days 11 14  
Year to date cooling degree days 3876 3960  
Growing Degree Days 25 (Base 50)    
Moisture  
Dew Point 63 °F    
Average Humidity 66    
Maximum Humidity 87    
Minimum Humidity 44    
Precipitation  
Precipitation 0.00 in 0.08 in 0.73 in (2011)
Month to date precipitation 0.00 0.08  
Year to date precipitation 8.37 11.52  
Snow  
Snow 0.00 in - - ()
Month to date snowfall 0.0  
Since 1 July snowfall 0.0  
Since 1 September snowfall 0.0  
Snow Depth 0.00 in    
Sea Level Pressure  
Sea Level Pressure 29.98 in    
Wind  
Wind Speed 5 mph (NNE)    
Max Wind Speed 17 mph    
Max Gust Speed 21 mph    
Visibility 10 miles    
Events      
T = Trace of Precipitation, MM = Missing Value Source: NWS Daily Summary

Daily Weather History Graph

Daily Weather History Graph

Search for Another Location

Airport or City:

Trip Planner

Search our weather history database for the weather conditions in past years. The results will help you decide how hot, cold, wet, or windy it might be!

Date:

Astronomy

Nov. 01, 2012 Rise Set
Actual Time 6:35 AM HST 5:55 PM HST
Civil Twilight 6:12 AM HST 6:18 PM HST
Nautical Twilight 5:45 AM HST 6:44 PM HST
Astronomical Twilight 5:19 AM HST 7:10 PM HST
Moon 8:16 PM HST (11/1) 9:02 AM HST (11/1)
Length of Visible Light 12h 05m
Length of Day
11h 20m
Waning Gibbous, 92% of the Moon is Illuminated
Nov 1
Waning Gibbous
Nov 6
Last Quarter
Nov 13
New
Nov 20
First Quarter
Nov 28
Full

Hourly Weather History & Observations

Time (HST) Temp. Heat Index Dew Point Humidity Pressure Visibility Wind Dir Wind Speed Gust Speed Precip Events Conditions
12:53 AM 73.0 °F - 64.0 °F 73% 30.01 in 10.0 mi Calm Calm - N/A   Partly Cloudy
1:53 AM 72.0 °F - 64.9 °F 78% 30.00 in 10.0 mi NNW 5.8 mph - N/A   Scattered Clouds
2:53 AM 71.1 °F - 66.0 °F 84% 29.99 in 10.0 mi NNW 5.8 mph - N/A   Partly Cloudy
3:53 AM 70.0 °F - 64.9 °F 84% 29.98 in 10.0 mi Calm Calm - N/A   Partly Cloudy
4:53 AM 69.1 °F - 64.9 °F 87% 29.98 in 10.0 mi NNW 3.5 mph - N/A   Partly Cloudy
5:53 AM 68.0 °F - 64.0 °F 87% 29.99 in 10.0 mi NW 3.5 mph - N/A   Partly Cloudy
6:53 AM 69.1 °F - 64.0 °F 84% 30.00 in 10.0 mi Calm Calm - N/A   Partly Cloudy
7:53 AM 73.0 °F - 64.0 °F 73% 30.01 in 10.0 mi NNW 4.6 mph - N/A   Partly Cloudy
8:53 AM 78.1 °F - 63.0 °F 60% 30.02 in 10.0 mi NNW 3.5 mph - N/A   Partly Cloudy
9:53 AM 81.0 °F 81.6 °F 60.1 °F 49% 30.02 in 10.0 mi East 8.1 mph - N/A   Partly Cloudy
10:53 AM 80.1 °F 81.7 °F 64.0 °F 58% 30.01 in 10.0 mi SW 8.1 mph - N/A   Mostly Cloudy
11:53 AM 81.0 °F 81.9 °F 62.1 °F 52% 29.99 in 10.0 mi Variable 3.5 mph - N/A   Mostly Cloudy
12:53 PM 82.0 °F 83.0 °F 62.1 °F 51% 29.97 in 10.0 mi Calm Calm - N/A   Mostly Cloudy
1:53 PM 84.0 °F 84.0 °F 60.1 °F 44% 29.94 in 10.0 mi NE 9.2 mph 17.3 mph N/A   Mostly Cloudy
2:53 PM 82.9 °F 83.3 °F 61.0 °F 47% 29.92 in 10.0 mi NE 9.2 mph - N/A   Mostly Cloudy
3:53 PM 82.0 °F 83.1 °F 63.0 °F 52% 29.92 in 10.0 mi ENE 15.0 mph 20.7 mph N/A   Mostly Cloudy
4:53 PM 80.1 °F 81.5 °F 63.0 °F 56% 29.94 in 10.0 mi ENE 11.5 mph - N/A   Mostly Cloudy
5:53 PM 78.1 °F - 63.0 °F 60% 29.95 in 10.0 mi ENE 9.2 mph - N/A   Scattered Clouds
6:53 PM 75.9 °F - 62.1 °F 62% 29.96 in 10.0 mi ENE 11.5 mph - N/A   Scattered Clouds
7:53 PM 75.9 °F - 63.0 °F 64% 29.99 in 10.0 mi ENE 13.8 mph - N/A   Partly Cloudy
8:53 PM 75.0 °F - 63.0 °F 66% 30.00 in 10.0 mi ENE 6.9 mph - N/A   Partly Cloudy
9:53 PM 73.9 °F - 63.0 °F 68% 30.00 in 10.0 mi NE 8.1 mph - N/A   Partly Cloudy
10:53 PM 73.0 °F - 63.0 °F 71% 30.00 in 10.0 mi NNE 5.8 mph - N/A   Partly Cloudy
11:53 PM 73.0 °F - 63.0 °F 71% 30.00 in 10.0 mi NNW 4.6 mph - N/A   Partly Cloudy